Tacoma, WA

8:26 PM PDT on August 23, 2017 (GMT -0700)
McChord Air Force Base

Weather History for KTCM - June, 2014

Change the Weather History Date:

Thursday, June 26, 2014

  Actual Average Record
Temperature  
Mean Temperature 62 °F -  
Max Temperature 67 °F 69 °F 89 °F (1987)
Min Temperature 57 °F 49 °F 39 °F (1976)
Degree Days  
Heating Degree Days 3    
Growing Degree Days 12 (Base 50)    
Moisture  
Dew Point 56 °F    
Average Humidity 83    
Maximum Humidity 100    
Minimum Humidity 66    
Precipitation  
Precipitation 0.01 in - - ()
Sea Level Pressure  
Sea Level Pressure 29.83 in    
Wind  
Wind Speed 5 mph (WSW)    
Max Wind Speed 14 mph    
Max Gust Speed -    
Visibility 10 miles    
Events Rain    
Averages and records for this station are not official NWS values.
T = Trace of Precipitation, MM = Missing Value Source: NWS Daily Summary

Daily Weather History Graph

Daily Weather History Graph

Search for Another Location

Airport or City:

Trip Planner

Search our weather history database for the weather conditions in past years. The results will help you decide how hot, cold, wet, or windy it might be!

Date:

Astronomy

Jun. 26, 2014 Rise Set
Actual Time 5:15 AM PDT 9:09 PM PDT
Civil Twilight 4:35 AM PDT 9:49 PM PDT
Nautical Twilight 3:40 AM PDT 10:44 PM PDT
Astronomical Twilight 2:17 AM PDT 12:07 AM PDT
Moon 5:05 AM PDT (6/26) 8:28 PM PDT (6/26)
Length of Visible Light 17h 13m
Length of Day
15h 53m
Waning Crescent, 0% of the Moon is Illuminated
Jun 26
Waning Crescent
Jun 27
New
Jul 5
First Quarter
Jul 12
Full
Jul 18
Last Quarter

Hourly Weather History & Observations

Time (PDT) Temp. Dew Point Humidity Pressure Visibility Wind Dir Wind Speed Gust Speed Precip Events Conditions
12:58 AM 66.0 °F 54.3 °F 66% 29.81 in 10.0 mi SSE 2.3 mph - N/A   Partly Cloudy
1:58 AM 65.7 °F 57.4 °F 75% 29.81 in 10.0 mi Variable 2.3 mph - N/A   Overcast
2:58 AM 64.4 °F 57.2 °F 77% 29.80 in 10.0 mi SSE 1.2 mph - N/A   Overcast
3:58 AM 63.9 °F 57.4 °F 79% 29.81 in 10.0 mi WSW 4.6 mph - N/A   Overcast
4:58 AM 60.1 °F 55.8 °F 86% 29.81 in 10.0 mi West 5.8 mph - N/A   Mostly Cloudy
5:58 AM 58.6 °F 55.2 °F 88% 29.81 in 10.0 mi WNW 3.5 mph - N/A   Scattered Clouds
6:03 AM 59.0 °F 55.4 °F 88% 29.80 in 10.0 mi WNW 2.3 mph - N/A   Light Drizzle
6:15 AM 59.0 °F 55.4 °F 88% 29.81 in 10.0 mi NW 3.5 mph - N/A   Clear
6:44 AM 59.0 °F 55.4 °F 88% 29.81 in 10.0 mi WNW 3.5 mph - N/A Rain Light Rain
6:58 AM 57.9 °F 55.2 °F 91% 29.82 in 10.0 mi NW 3.5 mph - 0.00 in Rain Light Rain
7:23 AM 57.2 °F 55.4 °F 94% 29.82 in 10.0 mi WNW 2.3 mph - N/A Rain Light Rain
7:28 AM 57.2 °F 55.4 °F 94% 29.82 in 10.0 mi West 3.5 mph - N/A Rain Light Rain
7:47 AM 57.2 °F 55.4 °F 94% 29.82 in 10.0 mi WNW 4.6 mph - N/A   Overcast
7:58 AM 57.9 °F 55.9 °F 93% 29.83 in 10.0 mi WNW 3.5 mph - 0.00 in   Overcast
8:32 AM 59.0 °F 57.2 °F 94% 29.83 in 10.0 mi West 3.5 mph - N/A Rain Light Rain
8:52 AM 59.0 °F 57.2 °F 94% 29.84 in 10.0 mi WNW 3.5 mph - N/A Rain Light Rain
8:58 AM 58.3 °F 56.8 °F 95% 29.84 in 10.0 mi West 2.3 mph - 0.00 in Rain Light Rain
9:33 AM 59.0 °F 57.2 °F 94% 29.84 in 10.0 mi WSW 4.6 mph - N/A Rain Light Rain
9:49 AM 59.0 °F 59.0 °F 100% 29.84 in 10.0 mi SW 3.5 mph - N/A   Overcast
9:58 AM 59.5 °F 58.1 °F 95% 29.85 in 10.0 mi Variable 3.5 mph - 0.01 in   Overcast
10:25 AM 60.8 °F 57.2 °F 88% 29.84 in 10.0 mi WSW 5.8 mph - N/A Rain Light Rain
10:30 AM 60.8 °F 57.2 °F 88% 29.84 in 10.0 mi SW 5.8 mph - N/A Rain Light Rain
10:49 AM 60.8 °F 59.0 °F 94% 29.84 in 10.0 mi SW 5.8 mph - N/A   Overcast
10:58 AM 60.6 °F 58.1 °F 91% 29.85 in 10.0 mi SW 6.9 mph - 0.00 in   Overcast
11:22 AM 60.8 °F 59.0 °F 94% 29.84 in 10.0 mi Variable 3.5 mph - N/A Rain Light Rain
11:33 AM 60.8 °F 59.0 °F 94% 29.84 in 10.0 mi Variable 4.6 mph - N/A   Overcast
11:48 AM 62.6 °F 59.0 °F 88% 29.84 in 10.0 mi WSW 3.5 mph - N/A   Overcast
11:58 AM 61.9 °F 58.1 °F 87% 29.85 in 10.0 mi WSW 2.3 mph - 0.00 in   Overcast
12:48 PM 64.4 °F 57.2 °F 77% 29.83 in 10.0 mi SSW 10.4 mph - N/A   Overcast
12:58 PM 65.1 °F 57.7 °F 77% 29.84 in 10.0 mi SW 8.1 mph - N/A   Overcast
1:58 PM 65.3 °F 57.2 °F 75% 29.85 in 10.0 mi SW 9.2 mph - N/A   Overcast
2:58 PM 63.1 °F 56.5 °F 79% 29.84 in 10.0 mi West 5.8 mph - N/A   Overcast
3:53 PM 66.2 °F 55.4 °F 68% 29.83 in 10.0 mi SSW 10.4 mph - N/A   Overcast
3:58 PM 66.4 °F 55.8 °F 69% 29.84 in 10.0 mi SW 13.8 mph - N/A   Overcast
4:58 PM 67.1 °F 55.6 °F 66% 29.84 in 10.0 mi SSW 6.9 mph - N/A   Overcast
5:58 PM 66.2 °F 54.9 °F 67% 29.83 in 10.0 mi SW 11.5 mph - N/A   Overcast
6:53 PM 66.2 °F 55.4 °F 68% 29.83 in 10.0 mi West 12.7 mph - N/A   Overcast
6:58 PM 65.1 °F 54.1 °F 68% 29.84 in 10.0 mi West 13.8 mph - N/A   Overcast
7:58 PM 63.1 °F 53.4 °F 71% 29.84 in 10.0 mi West 6.9 mph - N/A   Overcast
8:58 PM 61.5 °F 52.2 °F 71% 29.84 in 10.0 mi West 10.4 mph - N/A   Overcast
9:08 PM 60.8 °F 50.0 °F 68% 29.84 in 10.0 mi SW 13.8 mph - N/A   Overcast
9:58 PM 60.4 °F 49.8 °F 68% 29.86 in 10.0 mi SW 6.9 mph - N/A   Overcast
10:58 PM 59.0 °F 50.2 °F 73% 29.86 in 10.0 mi SSW 8.1 mph - N/A   Overcast
11:58 PM 57.6 °F 50.9 °F 78% 29.85 in 10.0 mi South 4.6 mph - N/A   Overcast